Tacoma Narrows, WA
on Thursday, December 20, 2012

Thursday
Previous Day Next Day
Daily Summary
 ActualAverageRecord
Temperature
Mean Temperature °F °F  
Max Temperature 46°F 43°F 48°F (2002)
Min Temperature 33°F 36°F 19°F (2008)
Degree Days
Heating Degree Days 24    
Moisture
Dew Point 36°F   
Average Humidity 82    
Maximum Humidity 93    
Minimum Humidity 71    
Precipitation
Precipitation 0.44 in in in ()
Wind
Wind Speed 10 mph   
Max Wind Speed 24 mph   
Max Gust Speed 32 mph   
Visibility 10 miles   
Events Rain   
Averages and records for this station are not official NWS values.
Key: T is trace of precipitation, MM is missing value
Source: NWS Daily Summary
Seasonal Weather Averages
Time(PST)TemperatureDew PointHumidity Pressure Visibility Wind DirectionWind SpeedGust SpeedPrecipitationEvents Conditions
12:53 AM 41.0°F 39.0°F 93% 29.52 in 10.0 miles Calm Calm - 0.01 in Rain Light Rain
1:53 AM 42.1°F 39.0°F 89% 29.51 in 10.0 miles Calm Calm - 0.03 in Rain Light Rain
2:53 AM 45.0°F 39.0°F 80% 29.52 in 10.0 miles South 6.9 mph - 0.00 in   Overcast
3:53 AM 46.9°F 37.9°F 71% 29.53 in 10.0 miles South 24.2 mph 32.2 mph N/A   Overcast
4:53 AM 46.0°F 39.0°F 76% 29.53 in 10.0 miles South 16.1 mph 28.8 mph 0.00 in Rain Light Rain
5:53 AM 44.1°F 39.9°F 85% 29.54 in 8.0 miles South 11.5 mph - 0.05 in Rain Light Rain
6:32 AM 44.6°F 39.2°F 81% 29.54 in 10.0 miles South 15.0 mph 20.7 mph 0.06 in Rain Light Rain
6:53 AM 43.0°F 37.9°F 82% 29.55 in 10.0 miles SSW 10.4 mph 18.4 mph 0.07 in Rain Light Rain
7:23 AM 42.8°F 39.2°F 87% 29.55 in 7.0 miles SSW 9.2 mph - 0.05 in Rain Light Rain
7:53 AM 42.1°F 37.0°F 82% 29.57 in 10.0 miles South 19.6 mph 27.6 mph 0.10 in Rain Light Rain
8:53 AM 42.1°F 37.0°F 82% 29.59 in 10.0 miles South 13.8 mph 20.7 mph 0.03 in Rain Light Rain
9:26 AM 42.8°F 37.4°F 81% 29.58 in 10.0 miles South 15.0 mph 20.7 mph 0.02 in Rain Light Rain
9:43 AM 41.0°F 37.4°F 87% 29.59 in 9.0 miles South 17.3 mph 24.2 mph 0.04 in Rain Light Rain
9:53 AM 41.0°F 37.0°F 86% 29.60 in 9.0 miles South 17.3 mph - 0.05 in Rain Light Rain
10:53 AM 41.0°F 36.0°F 82% 29.63 in 10.0 miles South 18.4 mph 28.8 mph 0.03 in Rain Light Rain
11:53 AM 39.9°F 36.0°F 86% 29.64 in 10.0 miles South 15.0 mph 21.9 mph 0.04 in Rain Light Rain
12:53 PM 41.0°F 37.0°F 86% 29.68 in 10.0 miles South 17.3 mph 21.9 mph 0.03 in   Overcast
1:39 PM 41.0°F 35.6°F 81% 29.68 in 10.0 miles South 11.5 mph - N/A   Overcast
1:53 PM 41.0°F 36.0°F 82% 29.69 in 10.0 miles South 13.8 mph - N/A   Overcast
2:53 PM 42.1°F 36.0°F 79% 29.73 in 10.0 miles South 16.1 mph 21.9 mph N/A   Mostly Cloudy
3:53 PM 41.0°F 34.0°F 76% 29.75 in 10.0 miles South 10.4 mph 20.7 mph N/A   Scattered Clouds
3:56 PM 41.0°F 35.6°F 81% 29.75 in 10.0 miles South 10.4 mph - N/A   Mostly Cloudy
4:06 PM 41.0°F 35.6°F 81% 29.75 in 10.0 miles South 11.5 mph - N/A   Scattered Clouds
4:53 PM 41.0°F 34.0°F 76% 29.77 in 10.0 miles South 10.4 mph 18.4 mph N/A   Mostly Cloudy
5:53 PM 39.9°F 33.1°F 77% 29.79 in 10.0 miles South 9.2 mph - N/A   Scattered Clouds
6:53 PM 39.0°F 33.1°F 79% 29.81 in 10.0 miles South 4.6 mph - N/A   Scattered Clouds
7:53 PM 37.9°F 33.1°F 83% 29.81 in 10.0 miles SW 4.6 mph - N/A   Partly Cloudy
8:53 PM 37.9°F 33.1°F 83% 29.82 in 10.0 miles SSW 6.9 mph - N/A   Clear
9:53 PM 37.0°F 33.1°F 86% 29.82 in 10.0 miles SSW 4.6 mph - N/A   Clear
10:53 PM 36.0°F 32.0°F 86% 29.83 in 10.0 miles South 3.5 mph - N/A   Clear
11:53 PM 33.1°F 30.0°F 89% 29.83 in 10.0 miles Calm Calm - N/A   Clear
Moon Phase
Dec. 20 Dec. 28 Jan. 04 Jan. 11 Jan. 18
Sunrise:07:54 AM (PST) Moon Rise:12:02 PM (PST)12/20
Sunset:04:22 PM (PST) Moon Set:12:25 AM (PST)12/20

Copyright © 2014 The Weather Underground, Inc.